Tracking 35331 objects as of 14-Sep-2026
HD Live streaming from Space Station
objects crossing your sky now

RESURS F-2 DEB


RESURS F-2 DEB is no longer on orbit


NORAD ID: 20119
Int'l Code: 1989-049E
Launch date: June 27, 1989
Source: Commonwealth of Independent States (former USSR) (CIS)
Launch site: PLESETSK MISSILE AND SPACE COMPLEX (PKMTR)
Decay date: 1989-08-05

Note: This is SATELLITE DEBRIS
Your satellite tracking list
Your tracking list is empty




NASA's NSSDC Master Catalog

Two Line Element Set (TLE):
1 20119U 89049  E 89217.62415262  .22570139 +10083-4 +15028-3 0  9992
2 20119 082.5444 019.3529 0013377 255.3025 104.9087 16.53350390002729
Source of the keplerian elements: AFSPC